Main page
METAR-TAF:

METAR-TAF

Airports :

Sialkot, Pakistan

Sialkot International Airport

latitude: 32-32N, longitude: 74-22E, elevation: 255 m

Current weather observation

The report was made 56 minutes ago, at 10:00 UTC
Wind 8 kt from the Northwest
Temperature 24°C
Humidity 31%
Pressure 1020 hPa
Visibility: 5000 m
Scattered clouds at a height of 10000 ft
haze

METAR: OPST 181000Z 31008KT 5000 HZ SCT100 24/06 Q1020 NOSIG RH32

Time: 15:56 (10:56 UTC)


TAF: missing

Weather observations and forecasts of more than 4000 airports (METAR and TAF reports).

The available stations are represented by yellow and red dots on the map.

Hover mouse over dot to see the name of the station.

Then click to see weather observations and forecasts.

To change the map : click on the green buttons with a black cross to zoom in, on the green button with a dash to zoom out, or on the green arrows for adjacent maps.


METAR-TAF: